Volver al catálogo

QIANFAN-74

ActivoComunicacionesPO
NORAD 63160·PAYLOAD·🇨🇳 China

Lanzado Mar 11, 2025 desde Wenchang Space Launch Site

Loading…

Próximos Pases (próximas 24 horas)

TLE

ActualizadoSource: Space-Track

Época: Sep 14, 2026, 13:08 UTC

1 63160U 25046B   26257.54743805 -.00000006  00000-0 -27328-4 0  9995
2 63160  88.9653 291.2778 0001821  96.1980 263.9378 13.51018699 84719

Sigue QIANFAN-74 en tiempo real con AllMySat

Download on the App Store